| time (UTC) | temp F | wind direction | speed knots | gust knots | rain 1hr in | rain 24hr in | rain mn in | humidity % | barometer mb |
| 20260503232717 | 55 | 227 | 24.3 | 26.1 | 0.00 | 0.00 | 0.00 | 58 | 1010.6 |
| 20260503232214 | 55 | 212 | 23.5 | 26.1 | 0.00 | 0.00 | 0.00 | 57 | 1010.6 |
| 20260503231713 | 57 | 216 | 20.0 | 23.5 | 0.00 | 0.00 | 0.00 | 56 | 1010.6 |
| 20260503231209 | 57 | 227 | 18.2 | 20.0 | 0.00 | 0.00 | 0.00 | 53 | 1010.4 |
| 20260503230705 | 57 | 238 | 24.3 | 26.9 | 0.00 | 0.00 | 0.00 | 52 | 1010.3 |
| 20260503230203 | 58 | 226 | 22.6 | 25.2 | 0.00 | 0.00 | 0.00 | 51 | 1010.2 |
| 20260503225659 | 59 | 244 | 21.7 | 22.6 | 0.00 | 0.00 | 0.00 | 49 | 1010.1 |
| 20260503225154 | 59 | 224 | 23.5 | 26.1 | 0.00 | 0.00 | 0.00 | 48 | 1010.3 |
| 20260503224652 | 59 | 234 | 23.5 | 26.1 | 0.00 | 0.00 | 0.00 | 47 | 1010.3 |
| 20260503224149 | 60 | 219 | 20.0 | 21.7 | 0.00 | 0.00 | 0.00 | 44 | 1010.2 |
| 20260503223647 | 61 | 208 | 20.0 | 21.7 | 0.00 | 0.00 | 0.00 | 37 | 1010.1 |
| 20260503223143 | 60 | 228 | 21.7 | 23.5 | 0.00 | 0.00 | 0.00 | 36 | 1010.1 |
| 20260503222641 | 60 | 217 | 20.9 | 23.5 | 0.00 | 0.00 | 0.00 | 37 | 1010.3 |
| 20260503222138 | 60 | 239 | 20.0 | 20.9 | 0.00 | 0.00 | 0.00 | 38 | 1010.3 |
| 20260503221637 | 61 | 230 | 29.5 | 33.0 | 0.00 | 0.00 | 0.00 | 36 | 1010.0 |
| 20260503221134 | 61 | 221 | 23.5 | 25.2 | 0.00 | 0.00 | 0.00 | 36 | 1010.3 |
| 20260503220630 | 62 | 230 | 23.5 | 26.9 | 0.00 | 0.00 | 0.00 | 36 | 1010.1 |
| 20260503220127 | 61 | 216 | 14.8 | 17.4 | 0.00 | 0.00 | 0.00 | 38 | 1010.1 |
| 20260503215624 | 61 | 225 | 17.4 | 20.0 | 0.00 | 0.00 | 0.00 | 38 | 1010.3 |
| 20260503215120 | 62 | 231 | 24.3 | 26.9 | 0.00 | 0.00 | 0.00 | 36 | 1010.1 |
| 20260503214619 | 62 | 224 | 20.0 | 22.6 | 0.00 | 0.00 | 0.00 | 37 | 1010.2 |
| 20260503214114 | 63 | 235 | 22.6 | 26.1 | 0.00 | 0.00 | 0.00 | 35 | 1010.3 |
| 20260503213609 | 62 | 222 | 20.9 | 22.6 | 0.00 | 0.00 | 0.00 | 35 | 1010.2 |
| 20260503213104 | 62 | 224 | 22.6 | 23.5 | 0.00 | 0.00 | 0.00 | 35 | 1010.4 |
| 20260503212602 | 62 | 193 | 17.4 | 20.0 | 0.00 | 0.00 | 0.00 | 36 | 1010.5 |
| 20260503212059 | 62 | 242 | 19.1 | 20.9 | 0.00 | 0.00 | 0.00 | 34 | 1010.2 |
| 20260503211556 | 63 | 233 | 25.2 | 26.9 | 0.00 | 0.00 | 0.00 | 33 | 1010.4 |
| 20260503211052 | 62 | 227 | 22.6 | 26.1 | 0.00 | 0.00 | 0.00 | 34 | 1010.5 |
| 20260503210549 | 63 | 224 | 26.1 | 27.8 | 0.00 | 0.00 | 0.00 | 33 | 1010.3 |
| 20260503210044 | 62 | 218 | 20.9 | 21.7 | 0.00 | 0.00 | 0.00 | 33 | 1010.5 |
| 20260503205542 | 63 | 222 | 20.9 | 22.6 | 0.00 | 0.00 | 0.00 | 33 | 1010.6 |
| 20260503205038 | 62 | 209 | 24.3 | 29.5 | 0.00 | 0.00 | 0.00 | 34 | 1010.3 |
| 20260503204535 | 63 | 235 | 25.2 | 32.2 | 0.00 | 0.00 | 0.00 | 34 | 1010.4 |
| 20260503204032 | 63 | 211 | 26.9 | 28.7 | 0.00 | 0.00 | 0.00 | 34 | 1010.3 |
| 20260503203529 | 63 | 216 | 26.1 | 27.8 | 0.00 | 0.00 | 0.00 | 34 | 1010.6 |
| 20260503203026 | 63 | 216 | 22.6 | 26.9 | 0.00 | 0.00 | 0.00 | 35 | 1010.5 |
| 20260503202524 | 63 | 210 | 24.3 | 27.8 | 0.00 | 0.00 | 0.00 | 32 | 1010.7 |
| 20260503202022 | 63 | 225 | 20.9 | 22.6 | 0.00 | 0.00 | 0.00 | 33 | 1010.8 |
| 20260503201520 | 63 | 226 | 26.1 | 28.7 | 0.00 | 0.00 | 0.00 | 33 | 1010.9 |
| 20260503201017 | 63 | 215 | 19.1 | 22.6 | 0.00 | 0.00 | 0.00 | 35 | 1010.6 |
| 20260503200513 | 63 | 218 | 20.0 | 20.9 | 0.00 | 0.00 | 0.00 | 35 | 1011.1 |
| 20260503200010 | 62 | 232 | 16.5 | 19.1 | 0.00 | 0.00 | 0.00 | 36 | 1011.0 |
| 20260503195507 | 63 | 242 | 22.6 | 27.8 | 0.00 | 0.00 | 0.00 | 33 | 1011.1 |
| 20260503195003 | 63 | 221 | 21.7 | 22.6 | 0.00 | 0.00 | 0.00 | 35 | 1011.0 |
| 20260503194501 | 63 | 217 | 20.9 | 22.6 | 0.00 | 0.00 | 0.00 | 36 | 1011.2 |
| 20260503193955 | 63 | 219 | 23.5 | 26.1 | 0.00 | 0.00 | 0.00 | 32 | 1011.2 |
| 20260503193451 | 63 | 215 | 20.9 | 23.5 | 0.00 | 0.00 | 0.00 | 35 | 1011.1 |
| 20260503192947 | 63 | 210 | 20.9 | 21.7 | 0.00 | 0.00 | 0.00 | 36 | 1011.1 |
| 20260503192444 | 62 | 217 | 20.9 | 23.5 | 0.00 | 0.00 | 0.00 | 36 | 1011.3 |
| 20260503191939 | 63 | 220 | 22.6 | 25.2 | 0.00 | 0.00 | 0.00 | 36 | 1011.2 |
| 20260503191437 | 62 | 212 | 24.3 | 27.8 | 0.00 | 0.00 | 0.00 | 34 | 1011.5 |
| 20260503190933 | 63 | 211 | 22.6 | 25.2 | 0.00 | 0.00 | 0.00 | 37 | 1011.5 |
| 20260503190431 | 63 | 225 | 25.2 | 28.7 | 0.00 | 0.00 | 0.00 | 34 | 1011.4 |
| 20260503185927 | 63 | 223 | 21.7 | 26.1 | 0.00 | 0.00 | 0.00 | 33 | 1011.6 |
| 20260503185424 | 62 | 228 | 20.0 | 22.6 | 0.00 | 0.00 | 0.00 | 34 | 1011.8 |
| 20260503184923 | 63 | 245 | 23.5 | 26.9 | 0.00 | 0.00 | 0.00 | 34 | 1011.7 |
| 20260503184420 | 63 | 207 | 13.0 | 15.6 | 0.00 | 0.00 | 0.00 | 32 | 1011.7 |
| 20260503183916 | 63 | 253 | 20.9 | 26.9 | 0.00 | 0.00 | 0.00 | 32 | 1012.0 |
| 20260503183413 | 63 | 227 | 20.0 | 21.7 | 0.00 | 0.00 | 0.00 | 35 | 1012.1 |
| 20260503182910 | 63 | 218 | 21.7 | 22.6 | 0.00 | 0.00 | 0.00 | 35 | 1011.9 |
| 20260503182409 | 62 | 222 | 24.3 | 26.1 | 0.00 | 0.00 | 0.00 | 35 | 1011.8 |
| 20260503181906 | 62 | 232 | 22.6 | 25.2 | 0.00 | 0.00 | 0.00 | 33 | 1012.0 |
| 20260503181403 | 62 | 231 | 20.9 | 21.7 | 0.00 | 0.00 | 0.00 | 32 | 1012.4 |
| 20260503180859 | 62 | 223 | 20.9 | 22.6 | 0.00 | 0.00 | 0.00 | 35 | 1012.0 |
| 20260503180357 | 62 | 227 | 18.2 | 20.9 | 0.00 | 0.00 | 0.00 | 34 | 1012.1 |
| 20260503175853 | 62 | 209 | 20.9 | 23.5 | 0.00 | 0.00 | 0.00 | 35 | 1012.2 |
| 20260503175352 | 61 | 230 | 21.7 | 23.5 | 0.00 | 0.00 | 0.00 | 35 | 1012.5 |
| 20260503174847 | 62 | 235 | 20.9 | 22.6 | 0.00 | 0.00 | 0.00 | 35 | 1012.6 |
| 20260503174345 | 62 | 264 | 20.0 | 22.6 | 0.00 | 0.00 | 0.00 | 35 | 1012.7 |
| 20260503173840 | 62 | 230 | 20.9 | 23.5 | 0.00 | 0.00 | 0.00 | 38 | 1012.6 |
| 20260503173336 | 62 | 241 | 22.6 | 25.2 | 0.00 | 0.00 | 0.00 | 34 | 1012.6 |
| 20260503172833 | 62 | 224 | 17.4 | 20.0 | 0.00 | 0.00 | 0.00 | 37 | 1012.7 |
| 20260503172331 | 61 | 253 | 19.1 | 20.9 | 0.00 | 0.00 | 0.00 | 32 | 1012.9 |
| 20260503171826 | 61 | 231 | 16.5 | 19.1 | 0.00 | 0.00 | 0.00 | 38 | 1012.8 |
| 20260503171324 | 61 | 216 | 23.5 | 27.8 | 0.00 | 0.00 | 0.00 | 36 | 1013.1 |
| 20260503170821 | 62 | 228 | 19.1 | 20.9 | 0.00 | 0.00 | 0.00 | 38 | 1013.0 |
| 20260503170317 | 60 | 212 | 20.0 | 21.7 | 0.00 | 0.00 | 0.00 | 39 | 1013.0 |
| 20260503150710 | 55 | 237 | 15.6 | 17.4 | 0.00 | 0.00 | 0.00 | 48 | 1014.3 |
| 20260503150206 | 55 | 216 | 13.0 | 14.8 | 0.00 | 0.00 | 0.00 | 52 | 1014.5 |
| 20260503140125 | 50 | 235 | 19.1 | 21.7 | 0.00 | 0.00 | 0.00 | 56 | 1014.8 |
| 20260503131054 | 48 | 230 | 14.8 | 15.6 | 0.00 | 0.00 | 0.00 | 57 | 1014.6 |
| 20260503130551 | 48 | 232 | 14.8 | 15.6 | 0.00 | 0.00 | 0.00 | 59 | 1014.9 |
| 20260503110442 | 36 | 215 | 6.1 | 7.0 | 0.00 | 0.00 | 0.00 | 76 | 1015.1 |
| 20260503090333 | 35 | 216 | 5.2 | 5.2 | 0.00 | 0.00 | 0.00 | 79 | 1015.3 |
| 20260503081300 | 34 | 216 | 2.6 | 2.6 | 0.00 | 0.00 | 0.00 | 81 | 1015.4 |
| 20260503080756 | 34 | 219 | 1.7 | 1.7 | 0.00 | 0.00 | 0.00 | 81 | 1015.3 |
| 20260503080254 | 35 | 211 | 3.5 | 4.3 | 0.00 | 0.00 | 0.00 | 79 | 1015.3 |
| 20260503072730 | 35 | 235 | 1.7 | 1.7 | 0.00 | 0.00 | 0.00 | 81 | 1015.5 |
| 20260503072227 | 35 | 224 | 1.7 | 1.7 | 0.00 | 0.00 | 0.00 | 79 | 1015.4 |
| 20260503071724 | 35 | 225 | 2.6 | 2.6 | 0.00 | 0.00 | 0.00 | 79 | 1015.6 |
| 20260503071221 | 35 | 225 | 3.5 | 4.3 | 0.00 | 0.00 | 0.00 | 79 | 1015.3 |
| 20260503070717 | 36 | 232 | 4.3 | 4.3 | 0.00 | 0.00 | 0.00 | 79 | 1015.5 |
| 20260503070215 | 36 | 227 | 4.3 | 4.3 | 0.00 | 0.00 | 0.00 | 78 | 1015.6 |
| 20260503033006 | 42 | 218 | 4.3 | 5.2 | 0.00 | 0.04 | 0.04 | 70 | 1016.1 |
| 20260503032504 | 42 | 211 | 4.3 | 5.2 | 0.00 | 0.04 | 0.04 | 69 | 1016.1 |
| 20260503032002 | 42 | 217 | 4.3 | 5.2 | 0.00 | 0.04 | 0.04 | 70 | 1016.1 |
| 20260503031459 | 42 | 211 | 4.3 | 5.2 | 0.00 | 0.04 | 0.04 | 70 | 1016.1 |
| 20260503030956 | 42 | 202 | 4.3 | 5.2 | 0.00 | 0.04 | 0.04 | 71 | 1016.1 |
| 20260503030452 | 42 | 206 | 2.6 | 2.6 | 0.00 | 0.04 | 0.04 | 72 | 1016.0 |
| 20260503025949 | 43 | 206 | 3.5 | 4.3 | 0.00 | 0.04 | 0.04 | 70 | 1016.3 |
| 20260503025446 | 43 | 209 | 3.5 | 4.3 | 0.00 | 0.04 | 0.04 | 69 | 1016.2 |
| 20260503024944 | 43 | 202 | 2.6 | 2.6 | 0.00 | 0.04 | 0.04 | 69 | 1016.1 |
| 20260503024440 | 43 | 197 | 2.6 | 2.6 | 0.00 | 0.04 | 0.04 | 67 | 1016.0 |
| 20260503023937 | 43 | 197 | 2.6 | 2.6 | 0.00 | 0.04 | 0.04 | 68 | 1016.3 |
| 20260503023434 | 43 | 197 | 2.6 | 2.6 | 0.00 | 0.04 | 0.04 | 72 | 1016.2 |
| 20260503022931 | 43 | 203 | 2.6 | 2.6 | 0.00 | 0.04 | 0.04 | 71 | 1016.1 |
| 20260503022426 | 43 | 219 | 3.5 | 4.3 | 0.00 | 0.04 | 0.04 | 68 | 1016.2 |
| 20260503021922 | 44 | 210 | 2.6 | 2.6 | 0.00 | 0.04 | 0.04 | 70 | 1016.4 |
| 20260503021418 | 44 | 201 | 2.6 | 2.6 | 0.00 | 0.04 | 0.04 | 69 | 1016.2 |
| 20260503020916 | 44 | 188 | 2.6 | 2.6 | 0.00 | 0.04 | 0.04 | 68 | 1016.0 |
| 20260503020414 | 44 | 185 | 2.6 | 2.6 | 0.00 | 0.04 | 0.04 | 65 | 1016.2 |
| 20260503015910 | 44 | 186 | 2.6 | 2.6 | 0.00 | 0.04 | 0.04 | 62 | 1016.0 |
| 20260503015407 | 44 | 181 | 1.7 | 1.7 | 0.00 | 0.04 | 0.04 | 60 | 1015.9 |
| 20260503014903 | 44 | 187 | 1.7 | 1.7 | 0.00 | 0.04 | 0.04 | 67 | 1016.0 |
| 20260503014400 | 44 | 202 | 2.6 | 2.6 | 0.00 | 0.04 | 0.04 | 65 | 1016.0 |
| 20260503013858 | 44 | 197 | 2.6 | 2.6 | 0.00 | 0.04 | 0.04 | 67 | 1016.0 |
| 20260503013355 | 44 | 201 | 2.6 | 2.6 | 0.00 | 0.04 | 0.04 | 69 | 1015.9 |
| 20260503012852 | 44 | 208 | 1.7 | 1.7 | 0.00 | 0.04 | 0.04 | 70 | 1016.0 |
| 20260503012349 | 44 | 212 | 2.6 | 2.6 | 0.00 | 0.04 | 0.04 | 69 | 1016.1 |
| 20260503011846 | 44 | 198 | 2.6 | 2.6 | 0.00 | 0.04 | 0.04 | 66 | 1015.9 |
| 20260503011343 | 44 | 193 | 2.6 | 2.6 | 0.00 | 0.04 | 0.04 | 63 | 1016.0 |
| 20260503010839 | 44 | 207 | 2.6 | 2.6 | 0.00 | 0.04 | 0.04 | 64 | 1016.2 |
| 20260503010337 | 45 | 214 | 2.6 | 2.6 | 0.00 | 0.04 | 0.04 | 66 | 1015.8 |
| 20260503005833 | 44 | 216 | 2.6 | 2.6 | 0.00 | 0.04 | 0.04 | 66 | 1015.8 |
| 20260503005331 | 45 | 217 | 0.9 | 0.9 | 0.00 | 0.04 | 0.04 | 66 | 1015.9 |
| 20260503004827 | 45 | 215 | 0.9 | 0.9 | 0.00 | 0.04 | 0.04 | 62 | 1016.0 |
| 20260503004325 | 46 | 228 | 1.7 | 1.7 | 0.00 | 0.04 | 0.04 | 59 | 1015.8 |
| 20260503003822 | 46 | 236 | 1.7 | 1.7 | 0.00 | 0.04 | 0.04 | 51 | 1015.9 |
| 20260503003319 | 46 | 318 | 1.7 | 1.7 | 0.00 | 0.04 | 0.04 | 48 | 1015.8 |
| 20260503002816 | 46 | 240 | 1.7 | 1.7 | 0.00 | 0.04 | 0.04 | 48 | 1015.8 |
| 20260503002313 | 46 | 260 | 2.6 | 2.6 | 0.00 | 0.04 | 0.04 | 53 | 1015.7 |
| 20260503001809 | 47 | 240 | 2.6 | 2.6 | 0.00 | 0.04 | 0.04 | 54 | 1015.9 |
| 20260503001306 | 47 | 255 | 2.6 | 2.6 | 0.00 | 0.04 | 0.04 | 48 | 1015.6 |
| 20260503000803 | 47 | 301 | 0.9 | 0.9 | 0.00 | 0.04 | 0.04 | 49 | 1015.7 |
| 20260503000300 | 47 | 304 | 1.7 | 1.7 | 0.00 | 0.04 | 0.04 | 48 | 1015.9 |
| 20260502235757 | 47 | 298 | 0.9 | 0.9 | 0.00 | 0.04 | 0.04 | 50 | 1015.7 |
| 20260502235255 | 47 | 318 | 0.9 | 0.9 | 0.00 | 0.04 | 0.04 | 50 | 1015.7 |
| 20260502234751 | 47 | 321 | 1.7 | 1.7 | 0.00 | 0.04 | 0.04 | 48 | 1015.8 |
| 20260502234248 | 47 | 307 | 2.6 | 2.6 | 0.00 | 0.04 | 0.04 | 45 | 1015.7 |
| 20260502233744 | 48 | 310 | 2.6 | 2.6 | 0.00 | 0.04 | 0.04 | 45 | 1015.7 |
| 20260502233241 | 48 | 302 | 3.5 | 5.2 | 0.00 | 0.04 | 0.04 | 45 | 1015.9 |